Powrót do katalogu

TITAN 3C TRANSTAGE DEB

AktywnyMEO
NORAD 43447·DEBRIS·🇺🇸 United States

Wystrzelony Feb 9, 1969 z Cape Canaveral Space Force Station

Loading…

Następne Przeloty (najbliższe 24 godziny)

TLE

ŚwieżeSource: Space-Track

Epoka: Sep 13, 2026, 14:13 UTC

1 43447U 69013G   26256.59283431 -.00000088  00000-0  00000+0 0  9993
2 43447   1.5137  81.6155 0136311  27.1452 334.5220  0.97139757 30126

Śledź TITAN 3C TRANSTAGE DEB w czasie rzeczywistym z AllMySat

Download on the App Store